Home   Weather   Middleburg   Past weeks
Flag for USA

Past Weather in Middleburg, Florida, USA — Yesterday and Last 2 Weeks

Now
72 °F

Mostly cloudy.


Feels Like: 71 °F
Forecast: 85 / 65 °F
Wind: 13 mph from Southwest

Location: Cecil Field Airport

Current Time: Oct 20, 2019 at 7:26:55 am

Latest Report: Oct 20, 2019 at 6:35 am


Visibility: 10 mi

Pressure: 29.82 "Hg

Humidity: 83%

Dew Point: 66 °F

Location of MiddleburgLocation

Past Weather in Middleburg — Graph

°F

Middleburg Temperature Yesterday

Maximum temperature yesterday: 84 °F (at 3:50 pm)
Minimum temperature yesterday: 66 °F (at 12:15 am)
Average temperature yesterday: 73 °F

High & Low Weather Summary for the Past Weeks

 TemperatureHumidityPressure
High93 °F (Oct 5, 2:50 pm)100% (Oct 5, 6:50 am)30.10 "Hg (Oct 5, 6:50 am)
Low52 °F (Oct 18, 12:35 am)34% (Oct 17, 3:50 pm)29.67 "Hg (Oct 19, 5:50 pm)
Average72 °F84%29.98 "Hg
* Reported Oct 5 6:15 am — Oct 20 6:15 am, Middleburg. Weather by CustomWeather, © 2019

Note: Actual official high and low records may vary slightly from our data, if they occured in-between our weather recording intervals... More about our weather records

Advertising

Middleburg Weather History for the Previous 24 Hours

Scroll right to see more
 ConditionsComfort  
Time TempWeatherWind HumidityBarometerVisibility
6:15 am
Sun, Oct 20
72 °FOvercast.14 mph83%29.81 "Hg10 mi
5:55 am73 °FMostly cloudy.9 mph78%29.80 "Hg10 mi
5:35 am73 °FOvercast.10 mph78%29.78 "Hg10 mi
5:15 am73 °FOvercast.14 mph83%29.77 "Hg10 mi
4:55 am73 °FOvercast.14 mph83%29.76 "Hg10 mi
4:35 am75 °FOvercast.12 mph78%29.76 "Hg10 mi
4:15 am75 °FOvercast.13 mph78%29.76 "Hg10 mi
3:55 am73 °FPartly cloudy.15 mph83%29.76 "Hg10 mi
3:35 am75 °FMostly cloudy.13 mph83%29.75 "Hg10 mi
3:15 am75 °FPassing clouds.16 mph83%29.75 "Hg10 mi
2:55 am75 °FMostly cloudy.14 mph89%29.74 "Hg10 mi
2:35 am77 °FMostly cloudy.12 mph83%29.75 "Hg10 mi
2:15 am77 °FOvercast.13 mph83%29.75 "Hg10 mi
1:55 am77 °FPassing clouds.14 mph83%29.74 "Hg9 mi
1:35 am77 °FPassing clouds.9 mph83%29.74 "Hg10 mi
1:15 am77 °FPassing clouds.13 mph83%29.74 "Hg10 mi
12:55 am77 °FPassing clouds.13 mph83%29.74 "Hg10 mi
12:35 am77 °FPassing clouds.13 mph83%29.75 "Hg10 mi
12:15 am77 °FPartly cloudy.12 mph83%29.75 "Hg10 mi
11:55 pm
Sat, Oct 19
77 °FPassing clouds.13 mph83%29.75 "Hg10 mi
11:35 pm77 °FPartly cloudy.15 mph83%29.75 "Hg10 mi
11:15 pm79 °FMostly cloudy.16 mph84%29.74 "Hg10 mi
8:50 pm79 °FPassing clouds.7 mph79%29.72 "Hg10 mi
7:50 pm79 °FPassing clouds.14 mph79%29.70 "Hg10 mi
6:50 pm84 °FPartly sunny.14 mph66%29.69 "Hg10 mi
5:50 pm81 °FPartly sunny.14 mph74%29.67 "Hg10 mi
4:50 pm81 °FPartly sunny.14 mph74%29.68 "Hg10 mi
3:50 pm84 °FPartly sunny.14 mph66%29.70 "Hg10 mi
2:50 pm81 °FPartly sunny.14 mph79%29.73 "Hg10 mi
1:50 pm81 °FPartly sunny.14 mph79%29.75 "Hg10 mi
12:50 pm77 °FBroken clouds.14 mph83%29.80 "Hg10 mi
11:50 am79 °FPartly sunny.16 mph84%29.82 "Hg10 mi
10:50 am75 °FLight rain. Partly sunny.12 mph94%29.84 "Hg2 mi
9:50 am73 °FFog.12 mph94%29.85 "Hg4 mi
8:50 am72 °FLight rain. Cloudy.13 mph94%29.85 "Hg4 mi
7:50 am70 °FLight rain. Broken clouds.13 mph94%29.86 "Hg6 mi
Weather by CustomWeather, © 2019

See weather overview